Ubon Ratchathani, Thailand

2:52 PM +07 on July 25, 2017 (GMT +0700)
Ubon Ratchathani

Weather History for VTUU - October, 2013

Change the Weather History Date:

Saturday, October 12, 2013

  Actual Average Record
Temperature  
Mean Temperature 82 °F -  
Max Temperature 92 °F 88 °F - ()
Min Temperature 73 °F 70 °F - ()
Cooling Degree Days 18    
Growing Degree Days 32 (Base 50)    
Moisture  
Dew Point 72 °F    
Average Humidity 69    
Maximum Humidity 94    
Minimum Humidity 45    
Precipitation  
Precipitation 0.00 in 0.09 in - ()
Sea Level Pressure  
Sea Level Pressure 29.78 in    
Wind  
Wind Speed 2 mph ()    
Max Wind Speed 6 mph    
Max Gust Speed -    
Visibility 5.3 miles    
Events      
T = Trace of Precipitation, MM = Missing Value Source: Averaged Metar Reports

Daily Weather History Graph

Daily Weather History Graph

Search for Another Location

Airport or City:

Trip Planner

Search our weather history database for the weather conditions in past years. The results will help you decide how hot, cold, wet, or windy it might be!

Date:

Astronomy

Oct. 12, 2013 Rise Set
Actual Time 5:51 AM +07 5:42 PM +07
Civil Twilight 5:30 AM +07 6:03 PM +07
Nautical Twilight 5:05 AM +07 6:28 PM +07
Astronomical Twilight 4:40 AM +07 6:53 PM +07
Moon 12:30 PM +07 (10/12) No Moon Set
Length of Visible Light 12h 33m
Length of Day
11h 50m
First Quarter, 53% of the Moon is Illuminated
Oct 12
First Quarter
Oct 19
Full
Oct 27
Last Quarter
Nov 3
New
Nov 10
First Quarter

Hourly Weather History & Observations

Time (+07) Temp. Heat Index Dew Point Humidity Pressure Visibility Wind Dir Wind Speed Gust Speed Precip Events Conditions
12:00 AM 77.0 °F - 71.6 °F 83% 29.83 in 5.6 mi Calm Calm - N/A   Unknown
1:00 AM 77 °F - 71 °F 78% 29.83 in 6 mi Calm Calm - -   Mist
1:00 AM 77.0 °F - 71.6 °F 83% 29.83 in 5.6 mi Calm Calm - N/A   Unknown
4:00 AM 75.2 °F - 71.6 °F 89% 29.80 in 5.6 mi North 2.3 mph - N/A   Unknown
5:00 AM 75.2 °F - 71.6 °F 89% 29.80 in 5.6 mi NNE 2.3 mph - N/A   Unknown
6:00 AM 73.4 °F - 71.6 °F 94% 29.80 in 5.0 mi NNE 3.5 mph - N/A   Unknown
6:30 AM 75.2 °F - 71.6 °F 89% 29.80 in 5.0 mi ENE 4.6 mph - N/A   Unknown
7:00 AM 75 °F - 71 °F 85% 29.85 in 6 mi NE 5.8 mph - -   Mist
7:00 AM 75.2 °F - 71.6 °F 89% 29.83 in 5.6 mi NE 5.8 mph - N/A   Unknown
8:00 AM 78.8 °F - 71.6 °F 78% 29.83 in 5.0 mi East 2.3 mph - N/A   Unknown
9:00 AM 82.4 °F 87.2 °F 71.6 °F 70% 29.86 in 5.6 mi ENE 3.5 mph - N/A   Partly Cloudy
10:00 AM 86.0 °F 91.8 °F 71.6 °F 62% 29.86 in 5.6 mi NNE 3.5 mph - N/A   Scattered Clouds
11:00 AM 89.6 °F 98.2 °F 73.4 °F 59% 29.80 in 5.6 mi NNE 4.6 mph - N/A   Scattered Clouds
12:00 PM 87.8 °F 93.8 °F 71.6 °F 58% 29.77 in 5.6 mi North 2.3 mph - N/A   Scattered Clouds
1:00 PM 90 °F - 71 °F 45% 29.77 in 6 mi ENE 4.6 mph - -   Haze
1:00 PM 89.6 °F 96.2 °F 71.6 °F 55% 29.74 in 5.6 mi ENE 4.6 mph - N/A   Scattered Clouds
2:00 PM 91.4 °F 96.8 °F 69.8 °F 49% 29.71 in 5.6 mi NNE 3.5 mph - N/A   Scattered Clouds
3:00 PM 89.6 °F 96.2 °F 71.6 °F 55% 29.71 in 5.6 mi NNE 4.6 mph - N/A   Scattered Clouds
4:00 PM 91.4 °F 98.4 °F 71.6 °F 52% 29.68 in 5.6 mi NW 4.6 mph - N/A   Scattered Clouds
5:00 PM 91.4 °F 98.4 °F 71.6 °F 52% 29.71 in 5.0 mi North 2.3 mph - N/A   Scattered Clouds
5:30 PM 89.6 °F 96.2 °F 71.6 °F 55% 29.71 in 5.0 mi NNW 3.5 mph - N/A   Scattered Clouds
6:00 PM 87.8 °F 93.8 °F 71.6 °F 58% 29.71 in 4.3 mi North 3.5 mph - N/A   Scattered Clouds
7:00 PM 85 °F - 72 °F 57% 29.75 in 4 mi North 2.3 mph - -   Haze
7:00 PM 86.0 °F 91.8 °F 71.6 °F 62% 29.74 in 4.3 mi North 2.3 mph - N/A   Scattered Clouds
8:00 PM 84.2 °F 90.9 °F 73.4 °F 70% 29.77 in 5.0 mi North 3.5 mph - N/A   Unknown
9:00 PM 82.4 °F 87.2 °F 71.6 °F 70% 29.80 in 5.0 mi Calm Calm - N/A   Unknown
10:00 PM 80.6 °F 84.6 °F 71.6 °F 74% 29.80 in 5.0 mi NNW 3.5 mph - N/A   Unknown
11:00 PM 80.6 °F 84.6 °F 71.6 °F 74% 29.80 in 5.0 mi NNW 2.3 mph - N/A   Unknown